Weather History for Montpelier, VT

Change the Weather History Date:

Sunday, December 8, 2013

  Actual Average Record
Temperature  
Mean Temperature 21 °F 26 °F  
Max Temperature 24 °F 34 °F 61 °F (1951)
Min Temperature 18 °F 18 °F -10 °F (1989)
Degree Days  
Heating Degree Days 44 39  
Month to date heating degree days 286 300  
Since 1 July heating degree days 2190 2146  
Moisture  
Dew Point 9 °F    
Average Humidity 60    
Maximum Humidity 73    
Minimum Humidity 46    
Precipitation  
Precipitation 0.00 in 0.10 in 0.51 in (2004)
Month to date precipitation 0.40 0.80  
Year to date precipitation 35.49 35.33  
Sea Level Pressure  
Sea Level Pressure 30.57 in    
Wind  
Wind Speed 3 mph (NW)    
Max Wind Speed 10 mph    
Max Gust Speed 15 mph    
Visibility 10 miles    
Events      
T = Trace of Precipitation, MM = Missing Value Source: NWS Daily Summary

Daily Weather History Graph

Daily Weather History Graph

Search for Another Location

Airport:

Trip Planner

Search our weather history database for the weather conditions in past years. The results will help you decide how hot, cold, wet, or windy it might be!

Date:

Astronomy

Dec. 08, 2013 Rise Set
Actual Time 7:13 AM EST 4:11 PM EST
Civil Twilight 6:40 AM EST 4:44 PM EST
Nautical Twilight 6:03 AM EST 5:20 PM EST
Astronomical Twilight 5:28 AM EST 5:55 PM EST
Moon 11:21 AM EST (12/8) 11:08 PM EST (12/8)
Length of Visible Light 10h 04m
Length of Day
8h 58m
Waxing Crescent, 40% of the Moon is Illuminated
Dec 8
Waxing Crescent
Dec 9
First Quarter
Dec 17
Full
Dec 25
Last Quarter
Jan 1
New

Hourly Weather History & Observations

Time (EST) Temp. Windchill Dew Point Humidity Pressure Visibility Wind Dir Wind Speed Gust Speed Precip Events Conditions
12:51 AM 19.9 °F 13.4 °F 10.9 °F 68% 30.50 in 10.0 mi NW 4.6 mph - N/A   Mostly Cloudy
1:51 AM 19.9 °F 14.9 °F 10.9 °F 68% 30.52 in 10.0 mi NNW 3.5 mph - N/A   Overcast
2:51 AM 19.9 °F 10.1 °F 8.1 °F 60% 30.52 in 10.0 mi NNW 8.1 mph - N/A   Overcast
3:51 AM 19.0 °F 10.0 °F 7.0 °F 59% 30.54 in 10.0 mi WNW 6.9 mph - N/A   Overcast
4:51 AM 19.0 °F 12.3 °F 7.0 °F 59% 30.54 in 10.0 mi NW 4.6 mph - N/A   Overcast
5:51 AM 18.0 °F - 6.1 °F 60% 30.57 in 10.0 mi Calm Calm - N/A   Overcast
6:51 AM 19.0 °F - 7.0 °F 59% 30.59 in 10.0 mi Calm Calm - N/A   Overcast
7:51 AM 19.0 °F - 6.1 °F 57% 30.61 in 10.0 mi Calm Calm - N/A   Overcast
8:51 AM 19.9 °F 14.9 °F 8.1 °F 60% 30.60 in 10.0 mi Variable 3.5 mph - N/A   Overcast
9:51 AM 21.0 °F 14.6 °F 10.0 °F 63% 30.62 in 10.0 mi NNW 4.6 mph - N/A   Mostly Cloudy
10:51 AM 21.9 °F 14.5 °F 9.0 °F 58% 30.62 in 10.0 mi NW 5.8 mph - N/A   Overcast
11:51 AM 23.0 °F 13.1 °F 8.1 °F 53% 30.57 in 10.0 mi NNW 9.2 mph - N/A   Clear
12:51 PM 23.0 °F 17.0 °F 8.1 °F 53% 30.58 in 10.0 mi NW 4.6 mph - N/A   Clear
1:51 PM 24.1 °F 19.7 °F 8.1 °F 51% 30.57 in 10.0 mi NW 3.5 mph - N/A   Scattered Clouds
2:51 PM 24.1 °F - 7.0 °F 48% 30.56 in 10.0 mi Calm Calm - N/A   Partly Cloudy
3:51 PM 23.0 °F 18.4 °F 8.1 °F 53% 30.59 in 10.0 mi NW 3.5 mph - N/A   Clear
4:51 PM 21.0 °F - 10.0 °F 63% 30.58 in 10.0 mi Calm Calm - N/A   Clear
5:51 PM 19.9 °F - 10.9 °F 68% 30.58 in 10.0 mi Calm Calm - N/A   Clear
6:51 PM 19.9 °F - 12.0 °F 71% 30.57 in 10.0 mi Calm Calm - N/A   Mostly Cloudy
7:51 PM 21.0 °F - 12.9 °F 71% 30.56 in 10.0 mi Calm Calm - N/A   Overcast
8:51 PM 19.9 °F - 12.9 °F 74% 30.56 in 10.0 mi Calm Calm - N/A   Overcast
9:51 PM 21.9 °F - 12.0 °F 66% 30.55 in 10.0 mi Calm Calm - N/A   Overcast
10:51 PM 21.0 °F - 14.0 °F 74% 30.55 in 10.0 mi Calm Calm - N/A   Overcast
11:51 PM 21.9 °F 17.2 °F 10.0 °F 60% 30.51 in 10.0 mi SE 3.5 mph - N/A   Overcast